This is the latest recevied weather packets stored in our database for station/object IT9CNT. If no packets are shown the sender has not sent any weather packets the latest 10 day(s).
| Time | Temp. | Humidity | Pressure | Rain* | Wind** | Luminosity | Snow |
|---|---|---|---|---|---|---|---|
| 1787479623 | 33.33° C | 69% | 1013.4 hPa | 0 mm | - | - | - |
| 1787479563 | 33.33° C | 69% | 1013.4 hPa | 0 mm | - | - | - |
| 1787479503 | 33.33° C | 70% | 1013.3 hPa | 0 mm | - | - | - |
| 1787479443 | 33.33° C | 70% | 1013.4 hPa | 0 mm | - | - | - |
| 1787479383 | 33.33° C | 69% | 1013.4 hPa | 0 mm | - | - | - |
| 1787479356 | 33.33° C | 69% | 1013.4 hPa | 0 mm | - | - | - |
| 1787479263 | 33.33° C | 69% | 1013.4 hPa | 0 mm | - | - | - |
| 1787479203 | 34.44° C | 68% | 1013.3 hPa | 0 mm | - | - | - |
| 1787479143 | 34.44° C | 68% | 1013.4 hPa | 0 mm | - | - | - |
| 1787479083 | 35° C | 67% | 1013.4 hPa | 0 mm | - | - | - |
| 1787479023 | 34.44° C | 66% | 1013.5 hPa | 0 mm | - | - | - |
| 1787478963 | 33.89° C | 66% | 1013.4 hPa | 0 mm | - | - | - |
| 1787478903 | 33.89° C | 65% | 1013.6 hPa | 0 mm | - | - | - |
| 1787478843 | 34.44° C | 63% | 1013.4 hPa | 0 mm | - | - | - |
| 1787478783 | 34.44° C | 63% | 1013.2 hPa | 0 mm | - | - | - |
| 1787478723 | 33.89° C | 65% | 1013.5 hPa | 0 mm | - | - | - |
| 1787478663 | 33.89° C | 65% | 1013.5 hPa | 0 mm | - | - | - |
| 1787478603 | 33.89° C | 63% | 1013.5 hPa | 0 mm | - | - | - |
| 1787478543 | 33.89° C | 63% | 1013.5 hPa | 0 mm | - | - | - |
| 1787478483 | 33.89° C | 62% | 1013.4 hPa | 0 mm | - | - | - |
| 1787478363 | 33.89° C | 63% | 1013.7 hPa | 0 mm | - | - | - |
| 1787478303 | 33.33° C | 63% | 1013.5 hPa | 0 mm | - | - | - |
| 1787478243 | 33.33° C | 63% | 1013.5 hPa | 0 mm | - | - | - |
| 1787478183 | 33.33° C | 63% | 1013.6 hPa | 0 mm | - | - | - |
| 1787478123 | 33.33° C | 63% | 1013.4 hPa | 0 mm | - | - | - |
* Rain latest hour (hover to see other rain measurements)
** Current wind speed in m/s (hover to see current wind gust speed)